Theta_e
309 308 306 306 306 305 306 305 305 305 305 304 304 304 303 303 302 300 300 301 302 300 302 300 299 299 303 295 294 293 293 293 293 293 294 294 294 293 294 293 294 295 296 296 296 296 297
308 307 306 306 305 305 305 305 305 305 304 304 303 303 302 302 300 299 300 301 301 299 299 298 296 296 296 292 293 293 293 293 292 292 293 293 293 293 293 293 292 293 294 294 294 294 295
307 306 306 305 305 305 305 304 305 304 304 303 303 302 301 300 299 298 299 300 303 299 299 299 298 300 293 292 293 293 292 292 292 292 293 292 293 293 293 292 293 293 292 293 294 295 294
306 305 305 304 305 304 304 304 304 304 303 303 303 301 300 299 296 296 296 298 302 303 301 299 295 296 293 293 293 293 292 292 292 292 292 293 293 293 293 293 293 292 292 292 293 293 293
305 304 304 304 304 304 304 304 303 303 302 302 302 301 300 299 292 292 293 295 294 295 294 294 295 296 292 293 292 293 292 292 292 293 293 293 293 293 293 292 291 291 289 290 290 292 292
304 303 303 303 303 303 303 303 303 303 302 301 301 299 299 298 292 293 294 295 295 294 295 295 294 294 292 292 292 293 291 292 293 294 294 294 293 292 291 290 289 289 289 289 290 291 292
304 303 302 303 303 303 303 303 303 302 301 300 300 298 296 297 292 294 297 294 298 297 294 293 293 292 292 292 293 292 292 292 293 293 292 293 292 291 289 289 290 290 290 290 291 292 292
303 303 302 303 302 302 302 302 302 302 301 300 299 296 293 292 293 294 295 296 295 294 294 293 292 293 292 292 293 292 292 291 292 292 292 292 293 291 292 291 291 292 292 291 292 292 292
302 302 302 302 301 302 302 302 301 301 301 299 296 292 291 291 294 294 293 294 294 295 297 293 292 292 292 293 292 292 292 292 291 292 291 292 293 293 292 291 292 292 291 292 293 293 293
302 301 302 301 301 301 301 301 301 301 300 299 292 292 291 293 295 293 293 293 295 295 299 293 292 292 293 293 292 292 292 292 292 292 291 292 293 293 291 292 292 292 292 293 293 293 294
301 300 301 299 301 301 301 300 300 301 299 294 292 291 292 292 293 292 291 294 295 295 313 294 292 292 294 292 292 292 292 292 291 291 291 292 291 292 291 292 292 292 293 292 293 293 293
301 301 300 298 300 301 300 299 300 300 298 290 292 291 292 292 293 292 292 294 294 303 299 294 293 293 292 292 292 293 293 292 292 291 292 290 293 292 291 292 292 293 292 292 292 293 289
301 301 298 298 299 300 300 299 299 299 296 291 291 291 292 292 292 291 292 295 303 301 294 292 292 292 292 291 291 292 292 290 289 289 289 291 292 292 292 292 292 292 290 289 285 289 294
300 300 298 298 300 299 298 298 299 298 294 290 291 291 294 292 291 291 293 296 300 293 293 292 292 292 291 291 291 291 292 290 290 289 290 289 291 291 291 291 291 292 291 291 290 290 290
300 300 297 298 298 298 298 298 298 296 292 290 292 294 294 291 291 291 295 298 293 292 291 291 292 291 291 291 290 291 291 290 289 288 290 290 290 290 291 293 291 291 290 290 291 291 292
300 300 297 297 297 296 297 297 295 295 290 290 295 294 293 291 292 294 299 294 293 291 291 291 292 291 291 291 290 290 291 289 289 289 289 289 291 291 292 293 293 290 290 287 288 289 291
300 299 298 297 295 294 295 295 295 292 290 292 295 296 293 292 294 296 296 292 292 291 291 290 291 291 290 290 290 290 290 291 290 290 289 288 289 290 290 291 289 289 288 289 288 292 290
301 299 298 296 295 293 293 294 293 290 290 293 295 298 291 293 295 294 292 290 291 291 291 291 291 291 290 290 290 289 291 290 290 289 288 288 291 290 289 292 291 288 288 288 289 289 289
301 299 298 295 295 293 292 293 290 290 289 294 297 294 293 293 297 293 291 290 290 290 290 290 290 290 290 289 288 289 290 290 290 289 288 287 287 289 286 290 293 291 287 287 288 289 289
301 299 298 295 294 293 292 291 289 289 289 293 300 303 294 293 293 294 293 289 290 291 290 290 289 289 289 289 289 288 289 290 289 289 291 290 288 289 290 292 291 290 287 286 288 287 286
301 299 298 296 295 293 291 290 289 289 291 294 296 293 292 294 292 291 292 290 290 289 290 290 289 289 288 287 289 289 288 288 288 290 289 288 286 289 289 290 292 289 286 286 286 286 285
301 299 298 296 295 293 291 290 290 289 292 293 297 298 295 291 291 292 291 291 290 290 289 289 289 288 288 287 288 287 288 288 288 288 288 288 288 288 288 292 292 292 286 286 287 286 285
301 300 298 297 295 293 291 290 290 289 293 294 292 292 296 292 291 293 291 290 290 289 289 289 288 288 288 288 287 287 287 287 287 288 288 287 288 287 290 291 292 293 285 285 286 285 284
301 300 298 297 296 294 292 290 291 290 291 293 292 293 296 294 292 290 290 290 290 289 288 289 288 287 287 287 287 288 288 288 288 288 288 287 287 288 290 290 296 288 286 285 285 285 284
301 300 298 298 297 294 292 291 293 292 293 290 292 293 294 295 291 290 290 290 289 289 289 288 288 287 287 287 288 289 289 288 288 288 288 286 287 286 291 290 291 289 285 284 284 285 283
301 300 299 298 297 295 293 291 293 292 293 291 291 292 293 294 290 289 289 289 288 288 289 289 288 288 287 288 290 286 287 287 287 287 288 287 286 287 290 290 292 283 283 283 285 287 283
301 300 299 298 297 295 294 292 293 294 292 293 291 291 292 292 289 289 290 288 288 289 287 288 286 286 287 288 288 286 286 287 285 287 284 284 283 286 287 287 286 283 283 284 283 284 283
301 299 299 298 296 295 295 293 293 293 293 293 292 291 291 291 290 288 289 288 288 288 287 286 287 286 285 285 286 285 284 283 283 286 284 280 282 284 285 284 285 282 283 282 282 282 282
301 299 298 298 294 296 295 294 293 293 294 293 292 290 289 290 290 288 288 288 288 288 287 287 285 285 286 284 284 284 285 283 282 285 285 280 280 281 283 285 283 281 281 282 281 281 281
Wind_Speed
7 8 9 10 11 12 14 14 16 17 18 19 20 20 21 21 20 22 22 17 15 10 9 10 5 4 3 7 7 17 18 21 21 22 17 11 12 11 9 15 18 18 16 20 25 24 23
6 8 8 9 11 12 13 14 16 17 18 20 19 19 20 20 19 22 20 15 11 15 16 17 20 10 11 7 16 14 21 22 23 21 19 13 9 11 9 13 14 17 19 21 22 25 22
5 7 8 9 10 11 13 14 16 17 18 19 18 19 19 21 19 22 15 11 10 3 5 7 6 2 15 11 13 14 21 23 22 22 13 13 14 8 11 14 9 17 21 19 18 16 19
5 6 7 8 10 12 13 15 16 17 19 19 18 18 20 22 19 21 11 9 5 4 4 5 6 8 4 9 15 17 23 26 26 15 15 13 8 9 8 10 15 14 10 12 16 21 20
5 5 6 8 10 12 13 15 16 18 19 19 18 18 19 21 17 21 7 6 10 4 7 6 5 3 3 7 22 16 23 26 21 18 16 10 9 7 10 6 8 9 13 18 22 17 22
4 5 6 8 10 11 13 15 17 18 19 19 18 18 19 19 13 21 4 6 4 21 5 4 11 2 7 12 17 16 26 28 14 16 9 11 3 6 6 8 8 17 17 19 20 21 21
3 4 6 7 9 11 13 15 17 18 19 20 19 19 21 19 13 20 8 7 4 2 15 7 6 5 10 17 10 20 27 21 13 10 12 8 6 6 10 10 14 15 17 19 22 20 23
3 3 5 6 8 10 12 15 16 18 19 21 19 20 21 15 14 18 12 6 5 2 3 4 3 5 12 16 6 15 25 11 10 10 16 9 4 8 13 13 14 17 16 17 21 18 19
3 2 4 5 8 10 12 14 16 17 19 21 19 19 21 14 10 11 15 11 4 3 3 3 2 3 7 12 5 13 17 10 11 10 12 9 10 14 15 12 12 13 18 18 23 27 20
3 1 3 5 7 9 12 14 15 17 19 20 17 17 19 12 5 15 7 12 3 3 2 4 6 4 9 10 1 11 15 7 6 9 11 7 12 16 12 14 15 15 18 26 27 21 13
3 1 1 4 7 9 11 14 15 17 19 20 13 16 14 14 5 6 10 7 3 3 2 3 3 4 17 4 10 6 20 5 12 12 6 6 20 11 11 12 15 20 23 30 31 21 12
4 2 1 3 6 9 11 14 15 17 19 18 10 14 15 9 5 11 7 2 3 2 4 3 4 11 16 9 11 10 7 10 4 10 8 21 14 2 4 11 17 17 21 27 12 1 1
5 3 1 3 6 9 11 14 16 18 19 17 6 10 13 11 8 13 4 3 1 5 7 9 9 12 15 8 9 11 11 6 8 9 17 12 11 4 4 13 10 17 19 7 6 4 5
6 4 2 2 5 8 11 13 16 18 20 16 4 6 8 11 13 7 3 2 7 3 5 8 11 17 5 10 9 11 10 6 7 7 12 9 8 5 13 4 4 7 10 5 7 7 13
7 5 2 2 4 8 10 13 16 19 20 13 3 2 4 19 11 5 3 5 3 4 5 10 14 5 6 11 8 8 9 3 4 7 9 6 6 20 16 8 7 6 12 14 6 13 9
8 6 3 2 4 7 10 13 16 19 21 10 2 2 6 15 8 4 3 5 2 3 7 7 4 5 8 11 8 11 6 2 3 6 7 5 12 7 11 5 1 4 9 6 5 5 9
10 7 4 2 4 7 9 13 16 19 19 5 1 2 12 9 5 3 4 3 2 2 5 4 5 6 5 10 12 8 3 2 3 7 11 6 4 11 12 9 8 5 5 4 5 4 5
12 9 6 3 3 5 9 12 16 19 17 6 3 0 15 14 3 3 3 2 2 3 2 3 4 2 5 8 6 5 5 1 8 7 9 3 4 6 22 5 11 15 6 4 4 6 7
13 11 8 4 2 5 8 11 14 17 16 4 2 2 9 6 3 3 2 1 1 4 4 4 4 3 5 6 6 6 6 14 15 13 3 4 3 7 7 2 2 4 12 10 11 4 3
15 13 9 6 2 3 7 10 13 15 11 3 2 2 3 5 3 2 2 4 4 3 2 2 6 6 6 9 8 9 17 11 16 12 7 6 2 7 9 16 15 3 14 16 8 3 9
17 14 11 7 4 1 5 9 11 13 8 4 4 2 0 2 4 4 0 2 5 6 4 4 3 5 7 3 15 5 17 17 15 2 9 2 4 11 19 19 1 3 13 17 11 5 4
18 16 13 9 5 1 3 7 10 11 6 6 2 1 1 2 1 3 3 0 4 3 2 5 5 9 9 6 8 14 16 13 7 5 10 6 4 14 16 7 9 1 17 17 10 4 5
20 17 15 11 7 3 1 5 9 10 4 5 3 2 1 2 3 2 2 2 2 5 4 4 6 9 9 9 15 17 15 13 11 10 6 3 6 10 5 14 11 3 9 16 12 3 10
22 19 16 13 9 5 1 3 7 11 11 7 4 4 1 2 2 2 1 1 5 5 5 7 7 5 7 17 17 14 11 7 6 7 5 4 8 4 6 11 1 4 9 16 13 2 16
25 22 19 16 12 8 4 2 4 8 10 13 7 2 1 1 3 4 2 2 5 6 5 3 5 6 12 9 4 5 2 1 4 1 5 7 6 3 3 8 2 4 15 21 11 3 19
27 24 21 17 14 10 6 4 4 6 8 9 10 6 3 1 3 3 1 2 1 3 4 2 5 12 5 2 3 4 3 3 4 8 4 11 7 2 6 5 4 9 19 23 8 4 25
31 27 23 20 16 12 9 6 6 5 6 4 4 6 4 2 3 1 1 2 2 2 2 2 5 6 6 3 3 3 3 4 4 7 7 5 4 4 6 4 3 13 15 18 8 9 23
34 31 27 22 19 14 11 9 7 6 5 3 4 4 3 1 2 1 1 1 1 2 1 4 2 3 3 5 3 2 2 2 1 5 4 1 3 4 5 4 4 17 6 6 7 15 18
38 33 30 27 20 17 13 11 9 8 7 5 3 3 3 2 2 1 2 1 1 3 1 2 4 1 1 2 3 3 3 3 3 2 1 3 3 2 2 4 9 11 5 8 11 15 15
Wind_Direction
74 67 50 44 37 34 27 21 17 12 7 5 4 4 2 1 360 355 354 358 3 22 37 57 85 55 305 57 21 351 351 351 354 349 352 348 339 347 330 322 309 297 313 317 317 313 306
79 59 52 43 35 28 24 19 15 10 7 5 4 5 1 359 359 355 357 10 32 76 73 70 58 55 66 66 336 344 348 349 351 347 334 347 338 327 290 330 313 295 298 312 312 307 306
82 59 52 42 31 23 22 17 13 10 7 5 5 3 0 358 358 356 5 16 33 152 358 10 32 37 63 34 5 359 351 346 343 333 322 333 319 317 318 299 298 307 294 290 285 294 302
66 62 48 41 29 22 17 16 11 9 7 5 4 3 1 358 359 359 5 23 41 74 1 16 18 59 92 31 2 360 353 345 343 346 326 310 322 296 273 290 282 287 299 302 304 314 311
81 66 45 39 27 21 15 13 12 8 6 5 4 0 359 355 0 360 29 54 48 350 23 36 350 317 77 332 359 342 359 340 334 327 305 318 318 289 276 302 325 324 309 311 306 318 310
89 71 46 37 25 20 15 12 10 7 4 4 3 359 358 352 357 2 24 111 138 26 313 283 2 73 42 352 338 342 353 342 342 318 350 343 293 260 4 357 319 312 312 304 296 302 296
96 77 48 35 24 20 12 11 7 4 1 2 360 358 359 353 8 10 5 273 253 141 34 66 44 66 348 351 328 3 357 341 347 356 359 321 289 12 347 323 308 296 287 287 292 294 295
109 77 46 32 25 20 13 9 6 1 359 358 356 360 358 7 27 17 41 52 47 334 76 67 21 33 353 346 332 2 2 7 344 354 355 343 49 5 321 312 308 299 307 302 295 296 296
143 90 39 29 24 17 13 6 3 1 359 356 355 358 1 11 35 17 53 36 342 326 260 100 33 357 331 328 337 10 11 349 348 337 352 312 292 331 319 317 323 325 304 305 299 301 285
157 122 38 24 25 14 8 4 2 360 357 355 358 357 5 356 12 351 52 350 352 320 239 23 5 52 331 322 263 19 6 355 339 322 334 303 341 320 325 312 347 310 306 295 293 302 297
171 149 35 14 19 12 5 1 1 359 355 357 359 3 8 36 353 34 319 338 334 277 27 359 28 319 338 24 343 11 347 348 331 326 293 282 311 306 315 327 323 299 317 304 297 282 279
181 187 331 11 13 8 3 359 359 357 355 357 358 10 24 10 39 354 334 346 295 238 356 28 18 349 348 4 344 354 346 24 5 319 308 319 296 203 276 303 312 327 317 305 293 245 319
194 197 295 14 13 6 1 358 357 354 354 352 348 6 30 17 340 335 344 264 298 56 11 348 334 340 320 3 350 345 343 36 32 342 336 328 327 62 349 329 307 341 339 333 352 10 308
199 207 266 354 10 7 0 357 355 353 349 350 332 8 20 7 340 339 303 254 56 57 19 343 333 310 314 29 341 340 349 14 39 350 306 345 325 48 330 341 312 330 349 329 313 329 302
199 201 240 328 3 5 359 355 353 352 349 354 22 1 13 348 350 360 286 46 19 7 340 327 319 341 350 2 334 353 340 44 41 0 9 313 271 323 301 13 25 323 357 305 258 263 270
200 199 220 312 351 0 358 354 355 351 350 355 22 304 31 350 336 316 39 94 56 347 332 342 322 14 333 338 345 337 353 217 359 342 3 280 298 291 325 330 317 40 336 330 330 307 311
198 196 197 273 337 356 357 357 355 353 353 22 345 277 352 354 336 55 61 73 28 346 22 340 333 319 331 337 329 329 299 61 211 320 346 302 247 291 305 333 61 356 4 339 281 295 320
196 194 192 230 315 349 358 359 355 356 1 30 301 323 354 355 48 49 56 24 344 308 306 303 277 218 281 325 294 318 314 109 316 328 331 272 288 300 300 124 126 67 5 336 310 323 299
195 194 195 213 275 349 358 359 358 0 8 16 20 2 353 18 54 74 153 125 135 335 347 349 311 359 294 312 318 310 325 315 354 334 334 310 309 306 325 306 216 60 13 354 319 262 12
195 194 197 205 224 355 355 360 0 1 15 42 53 30 41 54 93 45 339 17 343 100 299 331 287 288 321 324 317 302 303 328 337 323 354 352 290 272 282 306 303 330 10 358 333 321 307
194 194 195 201 215 344 358 3 3 4 31 54 15 52 287 27 52 89 31 228 338 8 19 289 288 322 342 305 311 292 331 330 328 280 355 59 261 295 305 298 61 91 24 355 339 3 336
193 193 193 198 204 249 354 8 8 7 57 68 93 96 314 84 183 218 170 33 355 356 258 306 325 332 320 299 295 315 320 324 297 331 336 337 281 317 308 285 195 70 22 354 339 357 301
193 193 193 192 196 206 351 21 26 24 65 90 74 71 60 158 166 273 67 29 333 326 289 307 318 316 314 321 317 293 282 277 262 287 312 310 309 322 275 316 307 81 352 354 336 7 1
192 192 194 192 192 196 186 43 42 51 67 105 101 113 165 143 237 60 73 29 292 302 285 308 309 327 309 318 300 275 239 237 255 261 226 278 318 286 292 323 36 183 19 342 336 34 11
193 191 190 191 190 188 174 122 62 67 62 88 93 96 43 117 33 155 141 337 311 253 263 316 321 328 322 308 306 339 117 146 245 293 37 4 317 315 293 311 157 57 341 337 347 299 13
193 190 190 190 188 186 176 162 126 99 88 86 80 70 71 94 72 59 40 129 305 338 330 141 355 323 300 269 312 16 360 336 339 332 19 357 318 192 308 299 351 354 332 329 306 249 3
194 189 188 187 185 187 182 175 157 140 114 93 91 87 71 58 86 191 69 34 34 294 257 14 330 335 343 328 339 24 324 35 3 319 335 342 346 317 333 285 113 3 356 333 33 311 333
195 189 185 184 184 184 182 182 172 165 155 105 117 105 66 26 113 130 115 67 129 216 311 315 16 339 0 23 10 335 326 288 27 317 341 12 338 341 342 356 351 15 0 42 304 319 324
195 188 185 183 185 182 182 184 180 175 183 147 116 178 120 81 82 94 22 24 32 2 94 298 160 212 355 7 21 329 337 322 331 297 235 9 162 227 244 292 353 350 45 358 353 331 324